Regional Weather Roundup
Issued by NWS

Home | Current Version | Previous Version | Graphics & Text | Print | Product List | Glossary Off
Versions: 1 2 3 4 5 6 7 8 9 10 11 12 13 14 15 16 17 18 19 20 21 22 23 24 25 26 27 28 29 30 31 32 33 34 35 36 37 38 39 40 41 42 43 44 45 46 47 48 49 50

000
ASUS43 KMKX 200020
RWRWI

WISCONSIN REGIONAL WEATHER ROUNDUP
NATIONAL WEATHER SERVICE MILWAUKEE/SULLIVAN WI
600 PM CST SUN NOV 19 2017

NOTE: "FAIR" INDICATES FEW OR NO CLOUDS BELOW 12,000 FEET WITH NO
SIGNIFICANT WEATHER AND/OR OBSTRUCTIONS TO VISIBILITY.

WIZ001-002-006>008-014>016-023>028-200100-
NORTHWEST WISCONSIN

CITY           SKY/WX    TMP DP  RH WIND       PRES   REMARKS
SUPERIOR ARPT  CLEAR     21  16  83 CALM      29.86F
6HR MIN TEMP:  21; 6HR MAX TEMP:  28;

ASHLAND        CLOUDY    25  16  68 CALM      29.88S
6HR MIN TEMP:  23; 6HR MAX TEMP:  25; 6HR PCP: TRACE;

HAYWARD        PTCLDY    25  15  66 S7        29.86F WCI  17
6HR MIN TEMP:  24; 6HR MAX TEMP:  30;

SIREN          CLEAR     26  18  71 CALM      29.87F
6HR MIN TEMP:  25; 6HR MAX TEMP:  33;

CUMBERLAND     CLEAR     27  19  74 S3        29.86F
RICE LAKE      CLEAR     27  18  69 SE6       29.89F WCI  21
6HR MIN TEMP:  27; 6HR MAX TEMP:  33;

CHETEK         CLEAR     27  17  65 SE3       29.89F
6HR MIN TEMP:  27; 6HR MAX TEMP:  33;

LADYSMITH      CLEAR     27  17  64 S3        29.90S
6HR MIN TEMP:  26; 6HR MAX TEMP:  32;

EAU CLAIRE     CLEAR     27  16  63 S5        29.90F WCI  22
6HR MIN TEMP:  27; 6HR MAX TEMP:  33;

MENOMONIE      CLEAR     27  19  73 E5        29.89F WCI  21
6HR MIN TEMP:  26; 6HR MAX TEMP:  35;

NEW RICHMOND   CLEAR     28  20  72 SE5       29.87F WCI  23
6HR MIN TEMP:  28; 6HR MAX TEMP:  34;

OSCEOLA        CLEAR     26  20  80 E6        29.89F WCI  19
6HR MIN TEMP:  26; 6HR MAX TEMP:  35;

$$

WIZ003>005-009-010-017-018-200100-
NORTH CENTRAL WISCONSIN

CITY           SKY/WX    TMP DP  RH WIND       PRES   REMARKS
MANITOWISH WTR CLOUDY    20  19  96 S3        29.84S
6HR MIN TEMP:  19; 6HR MAX TEMP:  22;

ARBOR VITAE    CLOUDY    23  17  76 CALM      29.84F
6HR MIN TEMP:  22; 6HR MAX TEMP:  24;

WOODRUFF       CLOUDY    23  17  76 CALM      29.84F
6HR MIN TEMP:  22; 6HR MAX TEMP:  24;

RHINELANDER    CLOUDY     1 N/A N/A SW6       29.86F WCI -10
EAGLE RIVER    CLOUDY    20  16  83 SW3       29.84S
6HR MIN TEMP:  17; 6HR MAX TEMP:  22;

LAND O LAKES   CLOUDY    21  18  88 SW3       29.85S
6HR MIN TEMP:  18; 6HR MAX TEMP:  23;

PHILLIPS       CLOUDY    26  15  64 SW5       29.85F WCI  20
6HR MIN TEMP:  23; 6HR MAX TEMP:  26;

TOMAHAWK       CLOUDY    24  15  68 CALM      29.88S
6HR MIN TEMP:  24; 6HR MAX TEMP:  26;

MEDFORD        CLOUDY    25  16  69 SW3       29.89S
6HR MIN TEMP:  24; 6HR MAX TEMP:  29;

MERRILL        CLOUDY    28  16  60 SW6       29.89F WCI  21
6HR MIN TEMP:  25; 6HR MAX TEMP:  29;

$$

WIZ029-030-035-036-043>047-200100-
CENTRAL WISCONSIN

CITY           SKY/WX    TMP DP  RH WIND       PRES   REMARKS
WAUSAU         CLOUDY    28  15  58 W5        29.90S WCI  23
6HR MIN TEMP:  24; 6HR MAX TEMP:  29;

MOSINEE        NOT AVBL
MARSHFIELD     CLEAR     25  14  63 SW5       29.91S WCI  19
6HR MIN TEMP:  24; 6HR MAX TEMP:  31;

STEVENS POINT  MOCLDY    24  12  61 SW5       29.93S WCI  18
6HR MIN TEMP:  24; 6HR MAX TEMP:  30;

WAUPACA        MOCLDY    29  16  59 S5        29.95F WCI  24
6HR MIN TEMP:  29; 6HR MAX TEMP:  34;

WAUTOMA        CLEAR     28  16  60 SW5       29.96F WCI  23
6HR MIN TEMP:  27; 6HR MAX TEMP:  32;

WISC RAPIDS    CLEAR     28  15  58 SW5       29.95S WCI  23
6HR MIN TEMP:  27; 6HR MAX TEMP:  33;

CAMP DOUGLAS   CLEAR    N/A N/A N/A CALM      29.96F
$$

WIZ011>013-019>022-031-037>040-048>050-200100-
NORTHEAST WISCONSIN

CITY           SKY/WX    TMP DP  RH WIND       PRES   REMARKS
ANTIGO         CLOUDY    25  13  60 SW7       29.88S WCI  17
6HR MIN TEMP:  23; 6HR MAX TEMP:  26;

SHAWANO        CLOUDY    31  13  47 SW3       29.93S
6HR MIN TEMP:  30; 6HR MAX TEMP:  33;

OCONTO         CLOUDY    26  11  52 SW5       29.93S WCI  21
6HR MIN TEMP:  26; 6HR MAX TEMP:  31;

STURGEON BAY   CLOUDY    28  13  53 W8        29.93R WCI  20
6HR MIN TEMP:  25; 6HR MAX TEMP:  29;

GREEN BAY      CLOUDY    30  16  56 SW5       29.95S WCI  25
6HR MIN TEMP:  29; 6HR MAX TEMP:  32;

MANITOWOC      MOCLDY    30  14  51 W6        29.97R WCI  24
6HR MIN TEMP:  28; 6HR MAX TEMP:  31;

APPLETON       PTCLDY    28  10  47 SW9       29.94R WCI  20
CLINTONVILLE   CLOUDY    28  12  50 SW3       29.93F
OSHKOSH        CLOUDY    28  16  60 SW5       29.96S WCI  23
6HR MIN TEMP:  28; 6HR MAX TEMP:  31;

$$

WIZ032>034-041-042-053>061-200100-
SOUTHWEST WISCONSIN

CITY           SKY/WX    TMP DP  RH WIND       PRES   REMARKS
LA CROSSE      CLEAR     35  22  58 S10       29.95F WCI  27
6HR MIN TEMP:  32; 6HR MAX TEMP:  38;

SPARTA         CLEAR     30  19  62 S3        29.96S
6HR MIN TEMP:  29; 6HR MAX TEMP:  33;

VIROQUA        CLEAR     30  23  76 SW8       29.95S WCI  22
6HR MIN TEMP:  28; 6HR MAX TEMP:  34;

BOSCOBEL       CLEAR     31  18  58 SW6       30.01F WCI  25
6HR MIN TEMP:  31; 6HR MAX TEMP:  38;

PRAIRIE DU CHI CLEAR     32  19  59 CALM      30.00F
6HR MIN TEMP:  31; 6HR MAX TEMP:  36;

PLATTEVILLE    CLEAR     27  22  82 S7        30.01F WCI  19
6HR MIN TEMP:  27; 6HR MAX TEMP:  34;

$$

WIZ056-057-062-063-064-067-068-200100-
SOUTH CENTRAL WISCONSIN

CITY           SKY/WX    TMP DP  RH WIND       PRES   REMARKS
REEDSBURG      CLEAR     29  18  62 SW7       29.97S WCI  22
6HR MIN TEMP:  29; 6HR MAX TEMP:  34;

BARABOO/DELLS  CLEAR     28  17  62 SW7       29.97S WCI  21
6HR MIN TEMP:  28; 6HR MAX TEMP:  34;

LONE ROCK      CLEAR     25  19  78 CALM      30.01S
6HR MIN TEMP:  25; 6HR MAX TEMP:  36;

MINERAL POINT  CLEAR     30  23  74 SW8       29.99F WCI  23
MADISON        PTCLDY    31  18  58 W9        29.99F WCI  23
6HR MIN TEMP:  28; 6HR MAX TEMP:  34;

MIDDLETON      CLEAR     31  19  60 SW6       30.00S WCI  25
6HR MIN TEMP:  31; 6HR MAX TEMP:  36;

WATERTOWN      CLEAR     28  17  63 SW5       29.99S WCI  23
6HR MIN TEMP:  28; 6HR MAX TEMP:  32;

MONROE         CLEAR     30  19  64 SW12      30.00F WCI  21
JANESVILLE     CLEAR     30  19  64 W6        30.03R WCI  24
$$

WIZ051-052-058>065-066-070>072-200100-
SOUTHEAST WISCONSIN

CITY           SKY/WX    TMP DP  RH WIND       PRES   REMARKS
MILWAUKEE      PTCLDY    32  16  51 SW8       30.01S WCI  25
6HR MIN TEMP:  31; 6HR MAX TEMP:  34;

WAUKESHA       CLEAR     27  16  63 W12       30.01R WCI  16
MILWAUKEE/TIMM CLEAR     28  12  50 SW8       30.01S WCI  20
RACINE         CLEAR     30  17  58 W10       30.03S WCI  21
6HR MIN TEMP:  30; 6HR MAX TEMP:  35;

BURLINGTON     CLEAR     29  24  82 SW5       30.02S WCI  23
6HR MIN TEMP:  29; 6HR MAX TEMP:  35;

KENOSHA        CLEAR     29  18  63 SW10      30.03R WCI  20
6HR MIN TEMP:  28; 6HR MAX TEMP:  34;

FOND DU LAC    MOCLDY    27  15  61 SW5       29.97S WCI  22
6HR MIN TEMP:  27; 6HR MAX TEMP:  32;

SHEBOYGAN      CLOUDY    29  15  56 SW6       29.97S WCI  23
6HR MIN TEMP:  29; 6HR MAX TEMP:  31;

WEST BEND      CLEAR     27  16  63 SW5       29.98R WCI  21
JUNEAU         CLEAR     28  18  66 SW9       30.00R WCI  19
6HR MIN TEMP:  27; 6HR MAX TEMP:  31;

$$

LSZ147-162-200100-
LAKE SUPERIOR

STATION/POSITION TIME  TEMP    WIND        PRES    WAVE
                       AIR SEA DIR/SP/G            HT/PER
                 (UTC) (F)     (DEG/KT/KT) (MB)    (FT/S)
DEVILS ISLAND    0000   28     220/ 15/ 18 1012.4R
SAXON HARBOR     2340   25     190/  5/ 10 1011.5S
$$

LMZ867-665-643>646-200100-
LAKE MICHIGAN

STATION/POSITION TIME  TEMP    WIND        PRES    WAVE
                       AIR SEA DIR/SP/G            HT/PER
                 (UTC) (F)     (DEG/KT/KT) (MB)    (FT/S)
N MID LAKE BUOY  2350   30 48  260/ 16/ 21 1013.5S   3/ 4
NORTHPORT PIER   2314   29     250/



USA.gov is the U.S. government's official web portal to all federal, state and local government web resources and services.